Welcome to the New NWS' Forecast!
Most changes are behind the scenes, but click here for differences you might notice.
Latest weather observations around

Joplin, Joplin Regional Airport (KJLN)

Using English Units (Switch to International System of Units)
Date/ Time (CDT) Wind (mph) Vis. (mi) Weather Sky Cond. Temp (°F) Rel. Humidity Wind Chill (°F) Heat Index (°F) Pressure Precip. (in)
Air Dwpt 6 hour Altimeter (inHg) Sea level (inHg) 1 hr 3 hr 6 hr
Max Min
Sep 23 08:53 SSE 8 10 Clear CLR 77 70     79%   78 30.04 30.01      
Sep 23 07:53 SE 3 9 Clear CLR 71 68     90%   72 30.03 30      
Sep 23 06:53 ESE 6 10 Clear CLR 69 68     96%     30.01 29.98      
Sep 23 05:53 SSE 6 10 Clear CLR 70 68     93%     30 29.97      
Sep 23 04:53 S 7 10 Clear CLR 71 68     90%   72 29.99 29.96      
Sep 23 03:53 SSE 7 10 Clear CLR 72 68     87%   73 29.98 29.95      
Sep 23 02:53 SSE 8 10 Clear CLR 72 68     87%   73 29.98 29.94      
Sep 23 01:53 SSE 6 10 Clear CLR 73 68     84%   74 29.98 29.94      
Sep 23 00:53 SE 6 10 Clear CLR 74 69     85%   75 29.99 29.95      
Sep 22 23:53 SE 5 10 Clear CLR 73 69     87%   74 29.98 29.95      
Sep 22 22:53 ESE 7 10 Clear CLR 73 69     87%   74 29.98 29.94      
Sep 22 21:53 ESE 5 10 Clear CLR 75 69     82%   76 29.97 29.94      
Sep 22 20:53 SE 5 10 Clear CLR 78 68     71%   79 29.97 29.93      
Sep 22 19:53 SE 5 10 Clear CLR 80 68     67%   83 29.95 29.92      
Sep 22 18:53 S 8 10 Clear CLR 83 68     61%   86 29.96 29.92      
Sep 22 17:53 SSE 9 10 Clear CLR 86 69     57%   90 29.96 29.92      
Sep 22 16:53 S 10 10 Clear CLR 86 68     55%   89 29.97 29.93      
Sep 22 15:53 S 16 10 Clear CLR 89 69     52%   94 29.97 29.93      
Sep 22 14:53 S 13 10 Partly Cloudy SCT048 87 70     57%   92 29.99 29.96      
Sep 22 13:53 S 14 10 Mostly Cloudy BKN044 87 70     57%   92 30.01 29.97      
Sep 22 12:53 S 14 10 Clear CLR 87 71     59%   93 30.02 29.98      
Sep 22 11:53 S 13 10 Clear CLR 85 71     63%   90 30.03 29.99      
Sep 22 10:53 SSW 17 10 Clear CLR 83 71     67%   88 30.04 30      
Sep 22 09:53 S 9 10 Clear CLR 80 73     79%   84 30.03 30      
Sep 22 08:53 SSE 11 10 Clear CLR 76 72     88%   77 30.02 29.98      
Sep 22 07:53 SE 8 9 Clear CLR 72 71     97%   73 30.01 29.98      
Sep 22 06:53 SSE 7 10 Clear   71 70     96%   72 30 29.96      
Sep 22 05:53 SSE 7 10 Clear CLR 72 71     97%   73 29.99 29.95      
Sep 22 04:53 SSE 6 10 Clear CLR 72 71     97%   73 29.98 29.94      
Sep 22 03:53 SSE 6 10 Clear CLR 72 70     93%   73 29.96 29.93      
Sep 22 02:53 SSE 6 10 Clear CLR 73 71     94%   74 29.96 29.93      
Sep 22 01:53 SSE 9 10 Clear CLR 75 71     88%   76 29.96 29.92      
Sep 22 00:53 SSE 9 10 Clear CLR 76 71     85%   77 29.96 29.92      
Sep 21 23:53 SE 9 10 Clear CLR 77 71     82%   78 29.96 29.92      
Sep 21 22:53 SSE 9 10 Clear CLR 77 71     82%   78 29.95 29.91      
Sep 21 21:53 SSE 8 10 Clear CLR 78 71     79%   79 29.94 29.91      
Sep 21 20:53 SSE 8 10 Clear CLR 80 72     76%   84 29.93 29.9      
Sep 21 19:53 SSE 8 10 Clear CLR 81 72     74%   85 29.91 29.87      
Sep 21 18:53 SSE 10 10 Clear CLR 84 72     67%   90 29.9 29.86      
Sep 21 17:53 SSE 15 10 Clear CLR 87 72     61%   94 29.9 29.86      
Sep 21 16:53 SSE 10 10 Clear CLR 88 74     63%   97 29.91 29.87      
Sep 21 15:53 SSE 14 10 Mostly Clear FEW038 88 74     63%   97 29.92 29.88      
Sep 21 14:53 S 14 10 Partly Cloudy SCT040 90 75     62%   101 29.93 29.89      
Sep 21 13:53 SSE 17 10 Mostly Cloudy BKN038 89 75     63%   99 29.94 29.9      
Sep 21 12:53 S 13 10 Partly Cloudy FEW035 SCT070 SCT080 88 75     66%   98 29.96 29.93      
Sep 21 11:53 S 15 10 Partly Cloudy SCT070 87 75     68%   97 29.97 29.93      
Sep 21 10:53 S 16 10 Clear CLR 84 75     74%   92 29.98 29.94      
Sep 21 09:53 SSE 14 10 Clear CLR 82 74     77%   88 29.98 29.94      
Sep 21 08:53 S 10 9 Clear CLR 78 73     85%   80 29.97 29.93      
Sep 21 07:53 SSE 9 8 Clear CLR 75 72     90%   76 29.96 29.92      
Sep 21 06:53 SSE 7 9 Clear CLR 74 72     94%   75 29.94 29.9      
Sep 21 05:53 SSE 7 9 Clear CLR 74 72     94%   75 29.93 29.89      
Sep 21 04:53 SSE 9 10 Clear CLR 76 72     88%   77 29.92 29.88      
Sep 21 03:53 S 7 10 Clear CLR 76 72     88%   77 29.92 29.88      
Sep 21 02:53 S 9 10 Clear CLR 78 72     82%   79 29.92 29.88      
Sep 21 01:53 S 10 10 Clear CLR 78 72     82%   79 29.93 29.89      
Sep 21 00:53 S 13 10 Clear CLR 78 72     82%   79 29.93 29.89      
Sep 20 23:53 S 11 10 Clear CLR 79 72     79%   82 29.91 29.88      
Sep 20 22:53 SSE 9 10 Clear CLR 80 72     76%   84 29.89 29.85      
Sep 20 21:53 SSE 8 10 Clear CLR 80 71     74%   84 29.88 29.84      
Sep 20 20:53 SSE 7 10 Clear CLR 82 71     69%   86 29.87 29.83      
Sep 20 19:53 SSE 9 10 Clear CLR 84 72     67%   90 29.84 29.8      
Sep 20 18:53 SSE 8 10 Clear CLR 87 72     61%   94 29.84 29.8      
Sep 20 17:53 SSE 11 10 Clear CLR 90 73     58%   98 29.83 29.79      
Sep 20 16:53 SSE 16 10 Clear CLR 91 73     56%   100 29.82 29.78      
Sep 20 15:53   10 Clear CLR 91 73     56%   100 29.83 29.79      
Sep 20 14:53 S 14 10 Clear CLR 91 74     57%   101 29.83 29.79      
Sep 20 13:53 S 20 10 Clear and Windy CLR 90 75     62%   101 29.84 29.8      
Sep 20 12:53   10 Clear CLR 89 75     63%   99 29.86 29.83      
Sep 20 11:53   10 Mostly Clear FEW032 87 75     68%   97 29.87 29.83      
Sep 20 10:53   10 Clear CLR 85 75     72%   93 29.88 29.84      
Sep 20 09:53   10 Clear CLR 82 74     77%   88 29.87 29.83      
Jun 12 01:53 S 9 10 Clear CLR 73 65     76%   74 29.92 29.88      
Jun 11 21:53 S 10 10 Clear CLR 79 65     62%   80 29.9 29.86      
Jun 11 11:53   10 Partly Cloudy SCT032 84 71     65%   89 29.94 29.9      
Jun 11 10:53   10 Clear CLR 83 70     65%   87 29.93 29.89      
Jun 10 19:53 S 15 10 Clear CLR 81 67     62%   83 29.83 29.79      
Jun 10 17:53   10 Clear CLR 85 68     57%   88 29.82 29.79      
Jun 10 11:53   10 Clear CLR 82 67     60%   85 29.9 29.86      
Jun 09 14:53 S 13 10 Partly Cloudy SCT055 80 61     52%   81 29.91 29.89      
Jun 09 00:53 SE 3 10 Clear CLR 60 55     83%     29.94 29.91      
Jun 08 23:53 S 3 10 Clear   62 56     80%     29.94 29.92      
Jun 08 12:53 WNW 5 10 Clear CLR 79 53     41%   78 30.05 30.03      
Jun 08 06:53 Calm 10 Clear CLR 56 53     90%     30.06 30.04      
Jun 07 21:53 Calm 10 Clear CLR 64 56     75%     30.05 30.02      
Jun 07 14:53 NNE 9 10 Clear CLR 81 52     37%   80 30.06 30.03      
Jun 07 11:53 E 9 10 Mostly Clear FEW060 79 49     35%   78 30.09 30.07      
Jun 06 11:53 N 5 10 Clear CLR 82 64     55%   84 29.96 29.93      
Jun 06 10:53 N 5 10 Clear CLR 79 66     65%   80 29.96 29.92      
Notice The following observation data may not be complete
Jun 06 04:02   2 Fog/Mist CLR          %              
Jun 05 19:53 Calm 10 Mostly Cloudy BKN075 84 70     63%   88 29.83 29.79